Total_Precipitation_Accumulation
1.61 1.66 1.63 1.54 1.50 1.87 2.28 2.43 2.23 2.47 2.52 2.17 1.88 1.75 1.65 1.62 1.73 1.89 1.84 2.10 2.04 1.99 2.17 2.24 2.07 1.82 1.63 1.34 1.13 0.97 0.83 0.80 0.73 0.58 0.46 0.39 0.36 0.35 0.34 0.35 0.36 0.32 0.29
2.09 2.12 2.00 1.87 1.69 1.76 2.04 2.25 2.27 2.48 2.36 2.28 1.73 1.65 1.60 1.67 1.77 1.79 1.76 2.27 2.29 2.08 2.07 2.17 2.21 2.08 1.91 1.76 1.49 1.22 1.01 0.91 0.83 0.65 0.52 0.46 0.41 0.35 0.35 0.37 0.40 0.36 0.26
2.52 2.41 2.16 1.90 1.81 1.87 1.98 1.98 2.00 2.12 1.98 1.93 1.71 1.78 1.74 1.60 1.45 1.46 1.59 1.81 1.83 1.73 1.70 1.76 1.94 2.09 2.22 2.19 2.01 1.82 1.43 1.12 0.94 0.74 0.58 0.47 0.41 0.36 0.34 0.36 0.41 0.40 0.30
2.41 2.34 2.02 1.70 1.79 1.90 1.87 1.83 1.74 1.83 1.80 1.85 1.84 1.72 1.76 1.62 1.33 1.29 1.34 1.33 1.41 1.29 1.43 1.54 1.62 1.81 2.23 2.55 2.62 2.51 2.13 1.55 1.13 0.90 0.73 0.57 0.46 0.38 0.34 0.35 0.40 0.39 0.31
2.16 2.24 1.92 1.75 1.78 1.73 1.62 1.54 1.72 1.88 1.81 1.82 1.78 1.62 1.42 1.25 1.06 0.95 0.94 0.87 0.99 1.09 1.23 1.38 1.45 1.55 1.99 2.57 3.02 3.16 2.91 2.26 1.64 1.23 1.03 0.86 0.68 0.52 0.41 0.37 0.36 0.33 0.28
1.78 1.85 1.64 1.58 1.67 1.62 1.49 1.56 1.71 1.81 1.61 1.67 1.59 1.32 1.17 0.96 0.89 0.78 0.67 0.66 0.64 0.66 0.84 1.17 1.42 1.25 1.56 2.05 2.58 2.98 3.23 2.93 2.31 1.85 1.50 1.20 0.99 0.77 0.55 0.45 0.39 0.34 0.29
1.29 1.45 1.29 1.36 1.42 1.36 1.29 1.30 1.39 1.42 1.25 1.49 1.57 1.12 0.82 0.73 0.67 0.59 0.59 0.58 0.52 0.60 0.77 1.02 1.21 1.26 1.21 1.33 1.64 2.08 2.76 3.08 2.83 2.39 2.00 1.63 1.36 1.10 0.78 0.59 0.52 0.42 0.36
1.14 1.09 1.07 1.07 1.13 1.16 1.07 1.03 1.16 1.14 0.98 1.24 1.34 1.19 0.80 0.63 0.54 0.45 0.48 0.48 0.51 0.65 0.68 0.79 1.01 1.13 1.07 1.31 1.21 1.27 1.88 2.48 2.82 2.76 2.41 1.97 1.62 1.34 1.05 0.85 0.68 0.54 0.44
1.25 1.19 1.09 1.00 0.96 0.99 0.99 0.97 1.05 1.06 0.94 0.98 1.11 1.27 0.99 0.67 0.52 0.38 0.40 0.47 0.59 0.71 0.71 0.79 0.87 1.02 1.02 1.18 1.27 1.31 1.34 1.65 2.25 2.85 2.85 2.38 1.83 1.39 1.12 1.04 0.94 0.72 0.55
1.42 1.29 1.17 0.98 0.84 0.82 0.87 0.79 0.86 0.98 1.00 0.89 0.89 0.97 0.99 1.01 0.91 0.55 0.34 0.37 0.56 0.66 0.69 0.71 0.79 0.94 1.05 1.18 1.33 1.53 1.38 1.31 1.67 2.37 2.79 2.72 2.27 1.73 1.38 1.27 1.40 1.29 0.89
1.17 1.01 0.94 0.87 0.78 0.70 0.70 0.74 0.85 0.94 0.96 0.88 0.88 0.87 0.92 1.06 1.07 0.93 0.60 0.52 0.57 0.56 0.55 0.60 0.72 0.87 1.01 1.22 1.51 1.66 1.79 1.56 1.47 1.65 2.00 2.24 2.33 2.09 1.79 1.72 2.06 2.21 1.83
0.78 0.73 0.70 0.71 0.70 0.68 0.69 0.69 0.75 0.84 0.92 0.96 0.97 1.01 1.06 1.07 1.13 1.22 0.99 0.82 0.75 0.66 0.64 0.73 0.85 1.03 1.15 1.29 1.37 1.52 1.57 1.62 1.58 1.53 1.58 1.69 1.87 1.98 2.01 2.09 2.39 2.68 2.72
0.54 0.58 0.60 0.64 0.64 0.69 0.74 0.81 0.81 0.82 0.89 1.00 1.03 1.11 1.19 1.18 1.24 1.34 1.28 1.09 0.99 0.96 0.98 0.98 1.00 1.16 1.17 1.28 1.42 1.32 1.12 1.20 1.22 1.23 1.23 1.24 1.34 1.54 1.68 1.79 2.08 2.42 2.68
0.53 0.55 0.63 0.69 0.68 0.68 0.69 0.79 0.83 0.90 0.97 1.01 1.00 1.16 1.25 1.19 1.31 1.44 1.47 1.43 1.30 1.29 1.36 1.37 1.17 1.09 1.11 1.20 1.31 1.20 1.11 1.01 0.82 0.74 0.73 0.77 0.84 0.99 1.15 1.31 1.50 1.69 1.93
0.57 0.62 0.69 0.78 0.79 0.78 0.80 0.84 0.85 0.95 1.13 1.20 1.18 1.23 1.29 1.27 1.31 1.44 1.56 1.60 1.58 1.52 1.52 1.51 1.26 1.11 1.02 1.03 1.12 1.18 1.29 1.09 0.74 0.58 0.52 0.52 0.57 0.65 0.73 0.87 1.01 1.17 1.31
0.62 0.66 0.71 0.74 0.78 0.79 0.80 0.85 0.90 1.00 1.16 1.24 1.32 1.40 1.40 1.34 1.38 1.45 1.50 1.62 1.73 1.74 1.63 1.48 1.31 1.19 1.11 0.97 0.99 0.96 1.03 0.91 0.67 0.56 0.50 0.47 0.46 0.48 0.54 0.62 0.70 0.83 0.96
0.61 0.68 0.65 0.59 0.56 0.60 0.72 0.87 0.93 1.01 1.10 1.14 1.21 1.23 1.22 1.26 1.31 1.26 1.34 1.47 1.63 1.77 1.64 1.53 1.45 1.41 1.34 1.24 1.11 0.91 0.79 0.70 0.62 0.59 0.51 0.46 0.46 0.46 0.46 0.48 0.53 0.61 0.72
0.58 0.63 0.60 0.54 0.53 0.58 0.71 0.86 1.00 1.20 1.33 1.30 1.22 1.15 1.07 1.14 1.23 1.25 1.33 1.36 1.43 1.64 1.64 1.61 1.60 1.62 1.53 1.35 1.25 1.11 0.91 0.79 0.75 0.69 0.58 0.50 0.44 0.44 0.43 0.44 0.49 0.54 0.63
0.58 0.58 0.58 0.63 0.73 0.82 0.93 1.05 1.11 1.24 1.29 1.21 1.17 1.10 1.03 1.03 1.08 1.18 1.29 1.33 1.32 1.39 1.54 1.58 1.60 1.67 1.65 1.45 1.27 1.15 1.05 1.07 0.98 0.81 0.63 0.53 0.47 0.43 0.42 0.41 0.49 0.58 0.71
0.45 0.54 0.66 0.83 0.95 1.01 1.03 1.10 1.09 1.07 1.07 0.98 0.92 0.87 0.90 1.01 1.07 1.07 1.06 1.10 1.15 1.26 1.35 1.42 1.50 1.62 1.67 1.60 1.38 1.26 1.24 1.20 1.12 0.86 0.73 0.60 0.51 0.44 0.40 0.36 0.39 0.53 0.68
0.45 0.58 0.73 0.82 0.82 0.84 0.90 0.97 0.97 0.93 0.88 0.82 0.73 0.59 0.59 0.76 0.90 0.93 0.87 0.91 0.96 1.05 1.10 1.20 1.31 1.46 1.56 1.64 1.46 1.28 1.24 1.31 1.27 1.14 0.98 0.80 0.66 0.58 0.55 0.51 0.44 0.44 0.50
0.54 0.64 0.74 0.74 0.69 0.54 0.48 0.49 0.55 0.61 0.67 0.67 0.59 0.54 0.53 0.54 0.56 0.58 0.63 0.68 0.75 0.84 0.96 1.11 1.24 1.32 1.35 1.45 1.54 1.51 1.45 1.41 1.41 1.38 1.38 1.31 1.04 0.94 0.90 0.84 0.67 0.46 0.37
0.61 0.67 0.68 0.69 0.67 0.63 0.45 0.34 0.33 0.41 0.48 0.50 0.50 0.54 0.43 0.37 0.42 0.42 0.43 0.41 0.43 0.49 0.61 0.84 1.06 1.15 1.27 1.30 1.52 1.57 1.59 1.70 1.71 1.70 1.67 1.72 1.45 1.19 1.01 0.93 0.83 0.60 0.45
0.71 0.74 0.70 0.72 0.76 0.72 0.57 0.44 0.36 0.32 0.39 0.42 0.45 0.48 0.48 0.49 0.50 0.51 0.49 0.46 0.41 0.38 0.40 0.49 0.70 0.95 1.16 1.39 1.46 1.54 1.62 1.69 1.72 1.61 1.55 1.66 1.59 1.47 1.24 0.94 0.83 0.73 0.61
0.92 0.89 0.88 0.90 0.91 0.90 0.73 0.50 0.39 0.40 0.49 0.49 0.51 0.51 0.52 0.52 0.51 0.41 0.43 0.45 0.45 0.46 0.38 0.39 0.49 0.70 0.90 1.01 1.23 1.44 1.56 1.49 1.43 1.26 1.11 1.22 1.34 1.39 1.43 1.27 0.97 0.87 0.75
1.10 1.03 0.97 0.97 0.97 1.00 0.89 0.56 0.42 0.50 0.67 0.71 0.73 0.68 0.54 0.47 0.42 0.32 0.37 0.49 0.47 0.46 0.52 0.48 0.42 0.48 0.62 0.76 0.83 0.95 1.17 1.28 1.18 1.13 0.96 0.87 0.88 1.00 1.14 1.09 0.94 0.89 0.89